SCP
0 0 0 0 0 0 0 0 0 0 0 0 0 0 0 0 0 0 0 0 0 0 0 0 0 0 0 0 0 0 0 0 0 0 0 0 0 0 0 0 0 0 0 0
0 0 0 0 0 0 0 0 0 0 0 0 0 0 0 0 0 0 0 0 0 0 0 0 0 0 0 0 0 0 0 0 0 0 0 0 0 0 0 0 0 0 0 0
0 0 0 0 0 0 0 0 0 0 0 0 0 0 0 0 0 0 0 0 0 0 0 0 0 0 0 0 0 0 0 0 0 0 0 0 0 0 0 0 0 0 0 0
0 0 0 0 0 0 0 0 0 0 0 0 0 0 0 0 0 0 0 0 0 0 0 0 0 0 0 0 0 0 0 0 0 0 0 0 0 0 0 0 0 0 0 0
0 0 0 0 0 0 0 0 0 0 0 0 0 0 0 0 0 0 0 0 0 0 0 0 0 0 0 0 0 0 0 0 0 0 0 0 0 0 0 0 0 0 0 0
0 0 0 0 0 0 0 0 0 0 0 0 0 0 0 0 0 0 0 0 0 0 0 0 0 0 0 0 0 0 0 0 0 0 0 0 0 0 0 0 0 0 0 0
0 0 0 0 0 0 0 0 0 0 0 0 0 0 0 0 0 0 0 0 0 0 0 0 0 0 0 0 0 0 0 0 0 0 0 0 0 -0 -0 0 0 0 0 0
0 0 0 0 0 0 0 0 0 0 0 0 0 0 0 0 0 0 0 0 0 0 0 0 0 0 0 0 0 0 0 0 0 0 0 0 0 0 0 0 0 0 0 0
0 0 0 0 0 0 0 0 0 0 0 0 0 0 0 0 0 0 0 0 0 0 0 0 0 0 0 0 0 0 0 0 0 0 0 0 0 0 0 0 0 0 0 0
0 0 0 0 0 0 0 0 0 0 0 0 0 0 0 0 0 0 0 0 0 0 0 0 0 0 0 0 0 0 0 0 0 0 0 0 0 0 0 0 0 0 0 0
0 0 0 0 0 0 0 0 0 0 0 0 0 0 0 0 0 0 0 0 0 0 0 0 0 0 0 0 0 0 0 0 0 0 0 0 0 0 0 0 0 0 0 0
0 0 0 0 0 0 0 0 0 0 0 0 0 0 0 0 0 0 0 0 0 0 0 0 0 0 0 0 0 0 0 0 0 0 0 0 0 0 0 0 0 0 0 0
0 0 0 0 0 0 0 0 0 0 0 0 0 0 0 0 0 0 0 0 0 0 0 0 0 0 0 0 0 0 0 0 0 0 0 0 0 0 0 0 0 0 0 0
0 0 0 0 0 0 0 0 0 0 0 0 0 0 0 0 0 0 0 0 0 0 0 0 0 0 0 0 0 0 0 0 0 0 0 0 0 0 0 0 0 0 0 0
0 0 0 0 0 0 0 0 0 0 0 0 0 0 0 0 0 0 0 0 0 0 0 0 0 0 0 0 0 0 0 0 0 0 0 0 0 0 0 0 0 0 0 0
0 0 0 0 0 0 0 0 0 0 0 0 0 0 0 0 0 0 0 0 0 0 0 0 0 0 0 0 0 0 0 0 0 0 0 0 0 0 0 0 0 0 0 0
0 0 0 0 0 0 0 0 0 0 0 0 0 0 0 0 0 0 0 0 0 0 0 0 0 0 0 0 0 0 0 0 0 0 0 0 0 0 0 0 0 0 0 0
0 0 0 0 0 0 0 0 0 0 0 0 0 0 0 0 0 0 0 0 0 0 0 0 0 0 0 0 0 0 0 0 0 0 0 0 0 0 0 0 0 0 0 0
0 0 0 0 0 0 0 0 0 0 0 0 0 0 0 0 0 0 0 0 0 0 0 0 0 0 0 0 0 0 0 0 0 0 0 0 0 0 0 0 0 0 0 0
0 0 0 0 0 0 0 0 0 0 0 0 0 0 0 0 0 0 0 0 0 0 0 0 0 0 0 0 0 0 0 0 0 0 0 0 0 0 0 0 0 0 0 0
0 0 0 0 0 0 0 0 0 0 0 0 0 0 0 0 0 0 0 0 0 0 0 0 0 0 0 0 0 0 0 0 0 0 0 0 0 0 0 0 0 0 0 0
0 0 0 0 0 0 0 0 0 0 0 0 0 0 0 0 0 0 0 0 0 0 0 0 0 0 0 0 0 0 0 0 0 0 0 0 0 0 0 0 0 0 0 0
0 0 0 0 0 0 0 0 0 0 0 0 0 0 0 0 0 0 0 0 0 0 0 0 0 0 0 0 0 0 0 0 0 0 0 0 0 0 0 0 0 0 0 0
0 0 0 0 0 0 0 0 0 0 0 0 0 0 0 0 0 0 0 0 0 0 0 0 0 0 0 0 0 0 0 0 0 0 0 0 0 0 0 0 0 0 0 0
0 0 0 0 0 0 0 0 0 0 0 0 0 0 0 0 0 0 0 0 0 0 0 0 0 0 0 0 0 0 0 0 0 0 0 0 0 0 0 0 0 0 0 0
0 0 0 0 0 0 0 0 0 0 0 0 0 0 0 0 0 0 0 0 0 0 0 0 0 0 0 0 0 0 0 0 0 0 0 0 0 0 0 0 0 0 0 0
0 0 0 0 0 0 0 0 0 0 0 0 0 0 0 0 0 0 0 0 0 0 0 0 0 0 0 0 0 0 0 0 0 0 0 0 0 0 0 0 0 0 0 0
Wind_Speed
11 11 10 11 9 9 8 7 6 3 1 7 10 11 11 10 11 10 10 10 11 10 9 9 9 9 10 10 10 10 12 12 11 9 9 9 8 7 7 6 7 6 6 7
11 12 11 9 8 8 7 5 3 3 5 9 12 11 10 11 11 11 10 10 11 11 10 10 9 9 10 10 9 9 11 11 10 9 8 8 7 6 6 6 5 6 7 9
9 12 10 6 4 4 4 5 4 4 7 13 12 11 11 11 11 11 11 11 11 10 10 9 9 9 9 9 8 9 10 10 9 9 8 7 7 6 6 5 6 8 8 8
9 8 6 2 2 3 4 6 7 10 12 12 12 11 9 10 12 12 11 11 11 10 10 10 9 9 9 9 9 9 9 9 8 8 8 7 6 6 6 5 6 6 7 7
6 6 5 1 2 2 3 5 8 12 14 14 15 12 8 9 11 12 11 11 10 10 10 10 9 9 8 8 8 8 8 8 7 7 7 6 6 6 5 5 5 5 6 7
7 7 4 2 3 2 2 4 9 12 14 15 13 7 7 10 13 13 12 10 10 10 10 9 8 7 8 8 7 8 7 7 6 6 6 6 6 5 4 4 5 6 6 6
9 5 2 4 4 3 2 4 8 11 13 12 7 6 14 15 14 13 13 12 11 10 9 8 8 7 7 7 7 7 7 7 7 6 6 6 5 4 4 4 5 6 6 6
4 2 2 5 5 6 6 8 9 11 11 12 14 17 18 16 15 14 13 12 11 10 9 7 7 7 7 7 6 6 6 6 5 4 5 6 4 3 3 4 5 5 5 6
2 4 5 7 8 8 8 10 11 12 14 16 17 17 17 16 14 14 13 11 10 11 10 8 7 7 8 6 6 6 6 5 5 5 5 4 4 3 3 2 3 3 4 4
4 8 7 8 10 10 11 12 13 14 15 16 17 17 17 15 13 13 12 11 10 11 11 8 7 7 7 7 6 6 6 5 5 4 4 4 3 3 4 4 3 3 3 4
6 9 9 10 11 12 13 14 15 15 16 16 17 17 16 13 12 12 11 10 9 9 9 9 8 8 8 7 5 5 5 4 4 5 6 6 7 7 7 7 6 5 5 5
4 8 8 11 12 14 15 15 15 16 16 16 16 16 15 13 12 11 11 10 9 9 10 9 8 8 7 6 5 5 4 4 4 4 4 5 7 7 11 8 9 11 10 7
10 12 14 15 15 15 15 16 15 16 16 16 15 15 14 13 12 11 11 11 10 10 10 9 9 8 7 6 5 5 3 3 3 4 4 3 4 6 5 5 6 7 8 7
15 16 16 15 15 15 16 16 16 16 16 15 14 14 13 12 12 11 11 11 11 11 10 9 9 8 7 7 5 4 4 4 3 3 3 2 2 3 5 5 5 4 3 3
13 14 15 16 16 16 16 16 16 15 15 14 13 13 13 12 12 11 11 11 11 10 10 9 9 8 7 7 5 4 3 3 2 2 3 3 2 3 3 4 4 5 5 3
15 16 17 17 17 16 16 16 15 15 15 14 13 13 13 12 11 10 10 10 10 9 9 9 8 8 7 6 5 4 3 3 1 1 2 2 2 3 3 3 4 3 3 3
16 17 17 17 17 16 16 15 14 15 15 14 14 13 13 13 12 11 10 9 9 9 8 8 7 8 8 6 5 4 5 5 3 2 2 2 2 2 3 3 3 3 2 2
14 15 16 17 16 16 16 15 15 15 14 14 14 13 13 12 11 11 10 10 9 9 8 8 7 7 7 6 4 3 4 5 5 3 3 3 2 2 3 3 3 3 3 4
16 17 17 16 16 15 15 15 15 15 14 14 14 13 12 11 11 11 10 10 10 9 8 8 6 5 6 5 3 4 4 4 4 4 4 4 3 2 3 3 3 3 2 3
17 18 17 17 17 16 15 15 15 14 14 13 13 13 12 11 11 11 10 8 7 7 9 8 7 6 6 6 3 4 4 4 4 4 4 4 3 3 3 3 3 3 2 1
18 18 18 17 17 16 16 16 15 14 14 14 13 12 12 11 11 10 9 7 8 9 9 8 6 5 5 5 5 5 4 5 4 4 4 4 4 3 3 3 3 3 2 2
18 17 18 17 16 15 14 14 14 15 14 13 13 13 12 11 11 9 7 6 9 9 8 8 7 5 5 4 6 6 5 5 5 4 4 4 4 4 3 3 3 3 2 1
16 16 17 17 16 15 15 14 14 14 13 13 13 12 12 10 9 8 8 7 9 9 6 6 8 10 7 5 6 5 4 5 4 4 5 5 5 5 4 4 3 3 2 2
16 16 16 16 16 15 15 14 14 11 12 12 12 12 10 9 7 7 7 10 11 10 5 8 12 10 6 6 6 5 5 5 5 5 5 5 5 5 5 4 4 3 3 3
16 16 16 16 15 13 13 14 14 13 13 10 12 13 10 8 7 7 9 12 12 10 8 9 10 9 7 7 8 5 4 4 4 4 4 4 4 5 5 4 4 3 4 4
14 13 13 12 10 10 12 12 11 11 11 10 11 10 9 8 8 8 8 12 14 9 8 9 9 8 8 9 8 5 4 6 5 4 4 4 5 4 4 4 5 4 3 3
15 12 11 12 12 12 12 12 11 12 11 11 11 11 10 9 9 10 11 11 11 10 9 9 10 10 9 10 8 5 4 5 6 6 5 5 4 4 4 5 4 4 4 4
Wind_Direction
281 284 268 272 290 297 298 310 315 326 122 147 138 133 129 125 119 114 108 104 100 96 92 88 85 86 88 89 89 93 93 91 88 87 86 86 83 81 81 84 88 84 82 77
293 288 284 288 300 303 308 329 360 63 85 118 121 123 129 132 131 126 121 114 111 108 103 99 97 95 94 93 95 97 97 97 98 96 93 91 90 87 85 84 85 83 76 72
293 297 298 294 304 308 342 5 8 25 115 130 131 136 140 138 135 131 125 119 114 111 107 102 100 102 101 101 101 99 98 99 101 101 99 98 102 98 94 92 88 85 84 84
285 297 293 308 33 28 46 40 62 96 120 128 127 123 124 134 137 131 127 123 119 116 112 108 108 107 107 108 105 102 101 101 104 107 106 106 103 98 94 91 91 93 94 94
286 295 285 312 17 1 51 67 94 113 120 120 119 112 109 123 128 127 126 123 118 116 116 114 113 113 113 111 108 107 107 108 109 110 110 110 105 102 100 101 103 105 107 105
277 292 303 24 34 24 83 101 107 123 133 139 148 141 141 138 130 126 123 121 122 123 122 120 122 125 122 118 117 116 118 118 114 111 109 105 104 108 111 112 113 109 106 102
267 282 51 20 337 316 347 107 123 130 142 154 167 115 130 136 133 131 129 129 131 130 126 128 130 127 119 117 116 116 116 113 112 113 114 107 107 109 113 111 106 105 107 103
302 314 57 4 7 46 88 112 118 124 130 125 111 115 127 134 135 136 135 137 137 132 129 133 134 128 118 117 117 114 113 115 118 121 117 111 108 104 106 116 120 120 123 120
36 74 86 63 75 92 105 112 117 121 123 123 124 128 131 134 137 139 139 140 139 136 134 136 135 131 124 122 120 117 112 110 104 99 93 106 116 119 122 123 125 130 133 130
101 102 97 90 93 96 102 111 115 120 125 127 127 130 133 136 138 138 138 139 141 139 138 139 141 134 126 123 121 121 117 113 111 108 99 82 68 64 57 44 51 86 101 107
106 118 112 101 102 106 108 112 116 119 122 126 128 132 135 137 139 139 140 140 141 140 137 135 134 131 129 127 124 123 120 111 106 99 96 84 69 50 64 51 43 48 52 62
107 130 118 117 116 117 119 120 121 121 122 126 131 134 136 138 139 139 140 140 141 139 135 134 134 131 130 131 131 129 123 121 119 119 120 120 114 90 60 78 74 68 63 69
104 110 113 119 119 120 122 123 124 125 127 130 133 135 136 137 139 141 143 144 144 142 140 139 139 136 133 131 124 114 108 106 111 114 116 119 126 129 124 99 72 72 72 75
112 116 121 123 123 123 123 124 124 125 127 129 132 134 134 136 139 141 142 145 144 143 142 142 142 139 138 135 129 129 128 115 116 115 121 128 130 133 139 146 143 133 118 116
123 125 126 125 125 125 127 129 129 129 129 130 133 134 135 138 140 140 141 144 144 144 144 144 142 142 143 140 138 139 135 130 135 131 135 128 127 121 121 126 129 136 144 165
128 128 131 133 134 135 137 137 135 135 135 136 137 137 139 139 138 139 140 144 146 144 143 143 143 145 145 142 144 138 112 86 108 167 145 135 137 131 123 124 128 139 163 171
142 144 144 144 143 144 142 141 139 138 138 139 139 138 138 138 139 141 142 144 144 141 144 146 149 151 153 162 179 170 158 153 185 203 164 143 140 131 127 125 129 138 136 100
151 150 149 148 147 146 144 142 141 140 142 143 142 142 143 143 144 141 141 142 142 143 148 151 152 159 163 174 193 186 173 168 177 169 149 131 131 137 139 141 141 143 154 165
150 147 148 148 147 145 144 143 143 143 144 146 146 145 145 144 142 141 142 145 147 147 148 138 142 170 168 168 199 198 185 169 159 150 137 136 176 158 152 160 156 166 187 186
146 148 148 148 147 145 144 144 144 145 147 148 146 146 146 144 144 144 147 151 152 144 143 145 166 178 173 167 229 222 178 171 168 159 154 161 166 163 176 173 173 180 187 187
149 150 151 150 148 147 146 146 147 149 150 150 150 150 148 147 150 151 159 152 141 141 144 153 185 181 183 168 202 233 190 175 166 159 161 169 174 177 178 180 184 179 183 190
152 153 153 150 149 147 147 148 150 152 152 154 155 153 152 155 158 162 169 148 146 145 160 177 190 169 155 186 212 219 190 168 168 168 177 177 175 176 177 180 187 190 180 170
154 154 152 151 150 148 150 153 155 156 157 159 158 157 160 165 166 167 165 151 152 165 194 175 146 139 150 215 242 224 182 170 177 178 179 183 183 182 183 189 195 189 173 184
154 154 152 151 150 153 157 158 156 157 161 161 160 162 165 169 174 179 159 146 147 162 180 135 147 153 180 231 248 231 185 178 189 194 188 190 189 184 182 186 190 182 179 198
154 153 153 154 157 159 160 158 157 162 167 166 164 168 175 181 179 171 151 148 150 160 156 161 170 172 206 233 245 232 191 176 183 197 184 185 195 187 179 182 188 194 196 194
155 157 157 163 161 160 163 164 167 170 174 170 168 173 180 181 176 160 150 157 166 183 177 168 181 196 219 236 245 233 186 157 169 204 203 190 206 200 185 188 194 203 203 198
158 156 158 167 168 171 170 172 173 175 179 175 172 175 180 180 175 170 168 165 171 187 195 183 187 199 215 230 233 222 211 189 187 199 209 210 212 209 200 195 205 205 206 208